TimeCDT,TemperatureF,Dew PointF,Humidity,Sea Level PressureIn,VisibilityMPH,Wind Direction,Wind SpeedMPH,Gust SpeedMPH,PrecipitationIn,Events,Conditions,WindDirDegrees,DateUTC
12:15 AM,50.0,48.2,94,29.85,10.0,South,5.8,-,N/A,,Clear,170,2013-08-06 05:15:00
12:35 AM,50.0,48.2,94,29.83,10.0,South,5.8,-,N/A,,Clear,170,2013-08-06 05:35:00
12:54 AM,51.8,50.0,94,29.81,7.0,SSE,4.6,-,N/A,,Clear,160,2013-08-06 05:54:00
1:15 AM,51.8,50.0,94,29.82,10.0,South,5.8,-,N/A,,Clear,170,2013-08-06 06:15:00
1:35 AM,51.8,50.0,94,29.81,10.0,South,4.6,-,N/A,,Clear,170,2013-08-06 06:35:00
1:55 AM,50.0,48.2,94,29.82,10.0,South,5.8,-,N/A,,Clear,190,2013-08-06 06:55:00
2:15 AM,50.0,48.2,94,29.82,10.0,South,4.6,-,N/A,,Clear,180,2013-08-06 07:15:00
2:35 AM,48.2,48.2,100,29.80,10.0,South,5.8,-,N/A,,Clear,170,2013-08-06 07:35:00
2:55 AM,48.2,48.2,100,29.80,10.0,SSE,5.8,-,N/A,,Clear,160,2013-08-06 07:55:00
3:15 AM,50.0,48.2,94,29.79,10.0,South,5.8,-,N/A,,Clear,170,2013-08-06 08:15:00
3:35 AM,50.0,48.2,94,29.79,10.0,South,4.6,-,N/A,,Clear,170,2013-08-06 08:35:00
3:55 AM,51.8,50.0,94,29.78,10.0,SSE,5.8,-,N/A,,Clear,160,2013-08-06 08:55:00
4:15 AM,51.8,51.8,100,29.77,10.0,South,4.6,-,N/A,,Clear,170,2013-08-06 09:15:00
4:35 AM,51.8,51.8,100,29.76,10.0,SSE,4.6,-,N/A,,Clear,160,2013-08-06 09:35:00
4:55 AM,53.6,53.6,100,29.74,10.0,SSE,4.6,-,N/A,,Clear,150,2013-08-06 09:55:00
5:15 AM,53.6,53.6,100,29.75,10.0,SSE,6.9,-,N/A,,Clear,160,2013-08-06 10:15:00
5:35 AM,53.6,51.8,94,29.75,10.0,Calm,Calm,-,N/A,,Scattered Clouds,0,2013-08-06 10:35:00
5:55 AM,53.6,51.8,94,29.76,10.0,South,5.8,-,N/A,,Unknown,180,2013-08-06 10:55:00
6:15 AM,53.6,51.8,94,29.77,10.0,South,4.6,-,N/A,,Unknown,180,2013-08-06 11:15:00
6:35 AM,53.6,51.8,94,29.77,10.0,Calm,Calm,-,N/A,,Overcast,0,2013-08-06 11:35:00
6:55 AM,55.4,53.6,94,29.77,10.0,South,4.6,-,N/A,,Mostly Cloudy,170,2013-08-06 11:55:00
7:15 AM,55.4,53.6,94,29.77,10.0,South,4.6,-,N/A,,Unknown,180,2013-08-06 12:15:00
7:35 AM,55.4,53.6,94,29.77,10.0,Calm,Calm,-,N/A,,Mostly Cloudy,0,2013-08-06 12:35:00
7:55 AM,55.4,53.6,94,29.77,10.0,Calm,Calm,-,N/A,,Overcast,0,2013-08-06 12:55:00
8:15 AM,55.4,53.6,94,29.77,10.0,SSW,4.6,-,N/A,,Scattered Clouds,210,2013-08-06 13:15:00
8:35 AM,57.2,53.6,88,29.77,10.0,SSW,4.6,-,N/A,Rain,Light Rain,200,2013-08-06 13:35:00
8:55 AM,57.2,55.4,94,29.77,10.0,Calm,Calm,-,N/A,,Light Drizzle,0,2013-08-06 13:55:00
9:15 AM,57.2,55.4,94,29.75,10.0,SSW,4.6,-,N/A,,Light Drizzle,200,2013-08-06 14:15:00
9:35 AM,60.8,57.2,88,29.75,10.0,SSW,5.8,-,N/A,,Scattered Clouds,200,2013-08-06 14:35:00
9:55 AM,62.6,57.2,82,29.75,10.0,SSW,9.2,-,N/A,,Scattered Clouds,200,2013-08-06 14:55:00
10:15 AM,66.2,59.0,78,29.75,10.0,SSW,9.2,-,N/A,,Scattered Clouds,200,2013-08-06 15:15:00
10:35 AM,66.2,59.0,78,29.76,10.0,SSW,12.7,-,N/A,,Mostly Cloudy,210,2013-08-06 15:35:00
10:55 AM,64.4,59.0,83,29.76,10.0,SW,10.4,-,N/A,,Overcast,220,2013-08-06 15:55:00
11:15 AM,64.4,59.0,83,29.75,10.0,SW,9.2,-,N/A,,Overcast,230,2013-08-06 16:15:00
11:35 AM,64.4,59.0,83,29.75,10.0,SSW,9.2,-,N/A,,Light Drizzle,210,2013-08-06 16:35:00
11:55 AM,66.2,59.0,78,29.75,10.0,SW,5.8,-,N/A,Rain,Light Rain,230,2013-08-06 16:55:00
12:15 PM,64.4,59.0,83,29.75,10.0,WSW,6.9,-,N/A,,Mostly Cloudy,240,2013-08-06 17:15:00
12:35 PM,64.4,59.0,83,29.75,10.0,WSW,5.8,-,N/A,,Mostly Cloudy,250,2013-08-06 17:35:00
12:55 PM,64.4,59.0,83,29.76,10.0,WSW,5.8,-,N/A,Rain,Light Rain,240,2013-08-06 17:55:00
1:15 PM,64.4,59.0,83,29.76,10.0,Calm,Calm,-,N/A,Rain,Rain,0,2013-08-06 18:15:00
1:35 PM,64.4,60.8,88,29.76,10.0,SW,6.9,-,0.01,,Overcast,220,2013-08-06 18:35:00
1:55 PM,66.2,60.8,83,29.76,10.0,SW,4.6,-,0.01,,Mostly Cloudy,220,2013-08-06 18:55:00
2:15 PM,66.2,60.8,83,29.76,10.0,SSW,5.8,-,N/A,,Overcast,210,2013-08-06 19:15:00
2:35 PM,66.2,60.8,83,29.77,10.0,WSW,9.2,-,N/A,Rain,Light Rain,240,2013-08-06 19:35:00
2:55 PM,64.4,60.8,88,29.76,10.0,WSW,5.8,-,N/A,Rain,Light Rain,250,2013-08-06 19:55:00
3:15 PM,66.2,62.6,88,29.76,10.0,West,8.1,-,N/A,Rain,Light Rain,260,2013-08-06 20:15:00
3:35 PM,68.0,60.8,78,29.76,10.0,NW,5.8,-,N/A,,Mostly Cloudy,310,2013-08-06 20:35:00
3:55 PM,71.6,60.8,69,29.76,10.0,NNW,9.2,-,N/A,,Scattered Clouds,330,2013-08-06 20:55:00
4:15 PM,71.6,60.8,69,29.76,10.0,NNW,10.4,-,N/A,,Scattered Clouds,340,2013-08-06 21:15:00
4:35 PM,68.0,59.0,73,29.77,10.0,NNW,9.2,-,N/A,,Mostly Cloudy,340,2013-08-06 21:35:00
4:55 PM,69.8,59.0,68,29.78,10.0,NNW,8.1,-,N/A,,Scattered Clouds,330,2013-08-06 21:55:00
5:15 PM,66.2,57.2,73,29.79,10.0,North,5.8,-,N/A,,Mostly Cloudy,350,2013-08-06 22:15:00
5:35 PM,64.4,57.2,77,29.80,10.0,North,10.4,-,N/A,,Overcast,350,2013-08-06 22:35:00
5:55 PM,64.4,57.2,77,29.79,10.0,North,9.2,-,N/A,,Overcast,360,2013-08-06 22:55:00
6:15 PM,62.6,57.2,82,29.80,10.0,North,4.6,-,N/A,,Overcast,360,2013-08-06 23:15:00
6:35 PM,62.6,57.2,82,29.80,10.0,North,10.4,-,N/A,,Mostly Cloudy,360,2013-08-06 23:35:00
6:55 PM,62.6,57.2,82,29.80,10.0,North,10.4,-,N/A,Rain,Light Rain,10,2013-08-06 23:55:00
7:15 PM,60.8,55.4,82,29.81,10.0,North,10.4,-,N/A,,Scattered Clouds,360,2013-08-07 00:15:00
7:35 PM,62.6,55.4,77,29.82,10.0,North,13.8,17.3,N/A,,Scattered Clouds,360,2013-08-07 00:35:00
7:55 PM,62.6,57.2,82,29.82,10.0,North,10.4,-,N/A,,Scattered Clouds,10,2013-08-07 00:55:00
8:15 PM,62.6,55.4,77,29.83,10.0,North,12.7,-,N/A,,Mostly Cloudy,360,2013-08-07 01:15:00
8:35 PM,60.8,55.4,82,29.83,10.0,North,10.4,-,N/A,,Scattered Clouds,360,2013-08-07 01:35:00
8:55 PM,57.2,55.4,94,29.85,10.0,North,9.2,-,N/A,,Clear,360,2013-08-07 01:55:00
9:15 PM,57.2,53.6,88,29.86,10.0,North,4.6,-,N/A,,Scattered Clouds,360,2013-08-07 02:15:00
9:35 PM,57.2,55.4,94,29.86,10.0,Calm,Calm,-,N/A,,Mostly Cloudy,0,2013-08-07 02:35:00
9:55 PM,55.4,53.6,94,29.87,10.0,Calm,Calm,-,N/A,,Scattered Clouds,0,2013-08-07 02:55:00
10:15 PM,53.6,51.8,94,29.87,7.0,Calm,Calm,-,N/A,,Clear,0,2013-08-07 03:15:00
10:35 PM,53.6,51.8,94,29.88,4.0,Calm,Calm,-,N/A,,Clear,0,2013-08-07 03:35:00
10:55 PM,51.8,50.0,94,29.89,0.5,Calm,Calm,-,N/A,Fog,Fog,0,2013-08-07 03:55:00
11:15 PM,51.8,48.2,88,29.89,0.2,Calm,Calm,-,N/A,Fog,Fog,0,2013-08-07 04:15:00
11:36 PM,50.0,48.2,94,29.89,0.8,Calm,Calm,-,N/A,,Mist,0,2013-08-07 04:36:00
11:55 PM,50.0,48.2,94,29.89,0.2,Calm,Calm,-,N/A,Fog,Fog,0,2013-08-07 04:55:00